Tracking 28790 objects as of 19-Apr-2024
HD Live streaming from Space Station
objects crossing your sky now

IRIDIUM 33 DEB

Track IRIDIUM 33 DEB now!
10-day predictions


NORAD ID: 35797
Int'l Code: 1997-051SF
Perigee: 680.4 km
Apogee: 709.7 km
Inclination: 86.3 °
Period: 98.5 minutes
Semi major axis: 7066 km
RCS: 0.0165 m2 (small)
Launch date: September 14, 1997
Source: United States (US)
Launch site: TYURATAM MISSILE AND SPACE COMPLEX (TTMTR)

Note: This is SATELLITE DEBRIS
Your satellite tracking list
Your tracking list is empty




NASA's NSSDC Master Catalog

Two Line Element Set (TLE):
1 35797U 97051SF  24109.66546571  .00019022  00000-0  38032-2 0  9991
2 35797  86.3438 242.1491 0020709 101.9423 258.4111 14.61632181784662
Source of the keplerian elements: AFSPC